SCP
0 0 0 0 0 0 0 0 0 0 0 0 0 0 0 0 0 0 0 0 0 -0 -0 -0 -0 -0 -0 -0 -0 -0 -0 -0 -0 -0 -0 -0 -0 -0 -0 -0 0 0 0
0 0 0 0 0 0 0 0 0 0 0 0 0 0 0 0 0 0 0 0 0 0 0 -0 -0 -0 -0 -0 -0 -0 -0 -0 -0 -0 -0 -0 -0 -0 -0 -0 0 0 0
0 0 0 0 0 0 0 0 0 0 0 0 0 0 0 0 0 0 0 0 0 0 0 0 0 -0 -0 -0 -0 -0 -0 -0 -0 -0 -0 -0 -0 -0 -0 -0 0 0 0
0 0 0 0 0 0 0 0 0 0 0 0 0 0 0 0 0 0 0 0 0 0 0 0 0 0 -0 -0 -0 -0 -0 -0 -0 -0 -0 -0 -0 -0 -0 -0 0 0 0
0 0 0 0 0 0 0 0 0 0 0 0 0 0 0 0 0 0 0 0 0 0 0 0 0 0 0 -0 -0 -0 -0 -0 -0 -0 -0 -0 -0 -0 -0 -0 -0 0 0
0 0 0 0 0 0 0 0 -0 0 0 0 0 0 0 0 0 0 0 0 0 0 0 0 0 0 0 0 0 0 0 -0 -0 -0 -0 -0 -0 -0 -0 -0 -0 -0 0
0 0 0 0 0 0 0 0 0 -0 0 0 0 0 0 0 0 0 0 0 0 0 0 0 0 0 0 0 0 0 0 -0 -0 -0 -0 -0 -0 -0 -0 -0 -0 -0 0
0 0 0 0 0 0 0 0 0 0 0 0 0 0 0 0 0 0 0 0 0 0 0 0 0 0 0 0 0 -0 0 0 -0 -0 -0 -0 -0 -0 -0 -0 -0 -0 0
0 0 0 0 0 0 0 0 0 0 0 0 0 0 0 0 0 0 0 0 0 0 0 0 0 0 0 0 0 0 -0 0 0 0 -0 -0 -0 -0 -0 -0 -0 -0 -0
0 0 0 0 0 0 0 0 0 0 0 0 0 0 0 0 0 0 0 0 0 0 0 0 0 0 0 0 0 0 0 0 0 0 0 -0 -0 -0 -0 -0 -0 -0 -0
0 0 0 0 0 0 0 0 0 0 0 0 0 0 0 0 0 0 0 0 0 0 0 0 0 0 0 0 0 0 0 0 0 0 0 0 0 -0 -0 -0 -0 -0 -0
0 0 0 0 0 0 0 0 0 0 0 0 0 0 0 0 0 0 0 0 0 0 0 0 0 0 0 0 0 0 0 0 0 0 0 0 0 0 0 0 0 0 0
0 0 0 0 0 0 0 0 0 0 0 0 0 0 0 0 0 0 0 0 0 0 0 0 0 0 0 0 0 0 0 0 0 0 0 0 0 0 0 0 0 0 0
0 0 0 0 0 0 0 0 0 0 0 0 0 0 0 0 0 0 0 0 0 0 0 0 0 0 0 0 0 0 0 0 0 0 0 0 0 0 0 0 0 0 0
0 0 0 0 0 0 0 0 0 0 0 0 0 0 0 0 0 0 0 0 0 0 0 0 0 0 0 0 0 0 0 0 0 0 0 0 0 0 0 0 0 0 0
0 0 0 0 0 0 0 0 0 0 0 0 0 0 0 0 0 0 0 0 0 0 0 0 0 0 0 0 0 0 0 0 0 0 0 0 0 0 0 0 0 0 0
0 0 0 0 0 0 0 0 0 0 0 0 0 0 0 0 0 0 0 0 0 0 0 0 0 0 0 0 0 0 0 0 0 0 0 0 0 0 0 0 0 0 0
0 0 0 0 0 0 0 0 0 0 0 0 0 0 0 0 0 0 0 0 0 0 0 0 0 0 0 0 0 0 0 0 0 0 0 0 0 0 0 0 0 0 0
0 0 0 0 0 0 0 0 0 0 0 0 0 0 0 0 0 0 0 0 0 0 0 0 0 0 0 0 0 0 0 0 0 0 0 0 0 0 0 0 0 0 0
0 0 0 0 0 0 0 0 0 0 0 0 0 0 0 0 0 0 0 0 0 0 0 0 0 0 0 0 0 0 0 0 0 0 0 0 0 0 0 0 0 0 0
0 0 0 0 0 0 0 0 0 0 0 0 0 0 0 0 0 0 0 0 0 0 0 0 0 0 0 0 0 0 0 0 0 0 0 0 0 0 0 0 0 0 0
0 0 0 0 0 0 0 0 0 0 0 0 0 0 0 0 0 0 0 0 0 0 0 0 0 0 0 0 0 0 0 0 0 0 0 0 0 0 0 0 0 0 0
0 0 0 0 0 0 0 0 0 0 0 0 0 0 0 0 0 0 0 0 0 0 0 0 0 0 0 0 0 0 0 0 0 0 0 0 0 0 0 0 0 0 0
0 0 0 0 0 0 0 0 0 0 0 0 0 0 0 0 0 0 0 0 0 0 0 0 0 0 0 0 0 0 0 0 0 0 0 0 0 0 0 0 0 0 0
0 0 0 0 0 0 0 0 0 0 0 0 0 0 0 0 0 0 0 0 0 0 0 0 0 0 0 0 0 0 0 0 0 0 0 0 0 0 0 0 0 0 0
0 0 0 0 0 0 0 0 0 0 0 0 0 0 0 0 0 0 0 0 0 0 0 0 0 0 -0 -0 0 0 0 0 0 0 0 0 0 0 0 0 0 0 0
Wind_Speed_500mb
32 32 40 42 41 41 46 51 48 50 44 36 41 29 13 19 20 20 16 13 21 20 34 35 33 33 34 30 34 33 32 34 29 31 31 30 29 26 25 24 23 24 24
35 30 33 35 43 46 46 60 53 54 46 39 43 26 24 25 26 21 12 16 21 20 35 34 33 34 34 32 31 32 31 31 30 29 30 28 28 26 24 22 21 22 21
31 31 28 27 30 36 52 58 61 58 52 43 38 36 32 30 31 24 19 19 20 31 34 32 34 34 33 32 32 31 33 32 29 28 27 26 27 26 24 22 20 19 18
19 28 23 19 27 34 43 53 49 57 58 50 54 47 40 35 31 26 22 20 18 31 37 35 34 32 33 32 34 31 32 30 27 26 25 24 26 26 24 21 19 17 16
15 20 23 12 23 28 41 57 56 47 63 58 58 48 41 41 35 30 24 21 11 25 37 38 36 37 36 35 35 33 34 31 27 26 24 23 24 24 24 22 19 17 16
12 15 20 13 19 22 41 46 55 38 67 70 65 50 43 40 36 33 24 16 13 9 21 33 38 40 39 38 38 36 34 33 30 28 26 24 24 25 24 23 20 18 16
16 23 20 26 14 19 33 47 52 57 53 60 64 54 46 42 38 30 24 22 22 14 16 15 27 37 42 41 39 39 37 37 34 32 30 27 27 26 26 25 22 21 19
16 16 26 25 17 19 24 40 52 49 70 66 64 59 43 41 45 42 32 28 25 24 24 22 22 24 29 40 43 44 43 39 36 34 33 31 30 29 27 26 25 23 21
4 18 21 32 21 27 26 24 39 49 60 70 65 47 30 20 51 50 43 34 32 35 34 32 29 29 34 40 40 40 42 44 41 38 36 36 34 32 30 28 26 25 23
8 8 20 30 35 23 28 30 32 40 53 59 61 65 54 34 39 30 54 49 44 45 45 42 41 39 39 41 40 35 41 44 44 41 41 39 38 36 34 31 29 27 26
8 8 12 26 38 40 28 28 35 48 51 53 60 71 84 64 57 47 43 57 55 55 53 49 49 46 44 43 44 40 39 46 46 44 44 43 42 40 38 34 32 30 29
11 8 4 13 30 47 43 33 26 44 50 49 62 70 78 80 72 64 57 60 74 65 59 56 57 54 54 52 47 46 46 46 46 48 47 47 46 45 42 38 35 34 32
19 12 13 7 16 38 49 32 37 39 47 46 57 75 71 80 75 62 67 65 69 74 73 67 67 65 63 63 56 52 54 52 49 47 50 52 51 49 46 43 40 38 36
26 22 14 13 15 21 36 45 31 33 42 49 65 52 61 61 78 80 82 69 60 70 79 80 74 80 75 72 67 59 56 56 56 50 49 53 55 52 50 49 45 42 39
31 20 16 18 19 22 39 45 44 42 27 38 54 58 53 64 57 65 79 83 77 45 72 79 76 63 71 77 76 65 62 53 51 55 52 52 55 57 55 52 50 47 44
32 23 19 17 16 30 21 34 43 44 41 37 40 47 52 54 63 70 80 75 88 84 54 68 69 65 45 49 65 71 70 60 54 49 50 54 57 59 59 56 55 53 50
35 23 18 20 18 18 27 37 42 43 38 46 41 45 49 53 50 60 54 61 72 88 87 71 68 58 58 37 44 64 77 70 58 54 49 51 55 59 60 60 59 58 55
37 26 18 15 20 21 24 28 37 46 53 43 43 43 43 41 44 47 50 56 63 68 65 73 53 72 42 34 37 48 52 65 65 53 50 50 55 57 60 62 61 60 60
33 29 21 17 21 23 23 22 29 35 55 60 47 45 45 47 41 56 53 53 45 58 74 75 74 55 43 39 48 35 53 59 55 48 50 51 54 59 60 63 63 63 62
31 31 23 20 22 22 26 25 26 30 49 56 55 50 47 44 41 47 55 46 38 43 47 74 88 92 66 61 50 43 47 47 52 58 56 56 52 54 61 63 64 67 65
29 29 22 18 20 25 26 27 28 29 24 39 55 51 51 44 44 45 51 57 44 32 35 43 55 70 77 83 79 63 61 57 47 44 63 55 51 53 56 60 69 71 69
26 38 30 25 27 32 21 26 27 26 26 29 40 52 56 41 45 43 52 60 56 48 41 48 53 58 89 84 90 81 67 60 61 61 68 74 60 53 60 61 66 71 71
21 23 25 29 31 35 34 21 20 21 20 23 22 28 35 53 39 46 47 48 71 47 58 61 65 71 66 73 81 83 85 90 87 82 61 77 78 71 62 68 70 69 72
37 34 35 32 36 43 32 20 11 11 10 12 21 29 32 38 40 48 50 48 53 53 57 67 72 74 75 70 76 74 67 73 83 87 90 79 81 90 90 77 71 77 70
40 38 44 40 40 49 45 37 23 17 9 8 3 13 28 39 47 52 53 49 53 52 45 45 43 54 64 71 90 92 89 83 82 82 89 105 97 96 91 83 79 73 76
32 30 36 34 35 44 43 47 44 36 24 17 13 12 10 20 38 53 41 54 57 55 57 52 48 44 41 53 67 76 88 91 92 84 93 95 97 95 91 99 92 85 80
Wind_Direction_500mb
231 221 222 219 219 208 210 201 194 196 190 181 174 171 208 213 215 242 263 289 277 236 164 170 169 167 165 169 167 168 160 159 156 155 154 155 153 150 146 142 135 130 126
238 220 222 231 217 214 214 199 195 194 189 176 173 196 209 209 218 238 268 289 253 200 166 174 174 171 174 177 176 169 167 165 165 163 160 159 157 158 155 152 146 139 136
248 244 226 226 222 223 218 207 195 188 189 184 193 196 205 213 217 235 274 285 239 179 173 178 188 182 185 184 180 175 171 176 175 169 168 168 166 168 165 164 160 150 146
229 258 242 217 204 219 218 213 185 187 193 197 200 192 208 222 222 231 260 283 246 189 183 191 190 191 191 188 183 187 183 182 184 179 176 174 175 175 175 175 173 166 160
216 249 252 230 198 213 225 220 201 212 196 204 201 198 206 222 227 233 247 270 260 214 192 194 197 196 200 200 196 189 198 191 192 188 183 183 186 184 187 188 187 184 180
214 185 241 256 201 216 222 219 207 235 220 203 201 200 206 211 219 229 241 249 270 234 210 208 201 200 204 205 201 202 202 202 200 197 193 194 198 198 196 199 199 200 200
210 210 199 235 223 200 209 210 214 219 229 195 200 196 198 198 199 218 227 237 264 259 239 235 234 217 211 207 207 204 206 209 208 204 197 199 204 208 207 210 209 211 214
229 213 218 215 216 218 210 217 225 221 196 185 193 191 185 193 199 205 216 225 250 253 252 246 238 239 249 231 215 209 210 213 211 210 208 204 207 212 214 218 218 220 223
325 217 229 221 220 224 228 230 222 227 206 196 197 185 175 192 195 201 198 213 229 240 250 255 255 257 259 245 231 229 219 216 217 218 214 212 211 214 217 221 225 227 230
309 282 223 221 221 243 225 227 228 229 198 186 202 212 213 203 186 196 205 208 220 233 242 251 250 253 261 240 231 236 238 230 223 222 222 220 217 217 219 221 226 231 235
332 272 229 235 226 224 236 232 234 230 223 221 225 222 225 218 212 209 203 210 218 224 233 247 251 249 256 257 236 237 241 238 237 230 228 227 225 223 222 223 226 231 236
324 264 273 200 208 222 220 241 236 235 226 235 238 236 224 211 210 219 218 225 224 226 227 234 246 247 252 256 253 246 242 237 235 236 236 234 231 228 227 225 226 230 234
308 302 283 248 200 211 229 228 242 242 242 240 237 226 237 225 223 223 223 219 230 235 235 232 239 245 247 251 254 254 249 240 241 239 240 238 237 234 231 229 228 229 232
320 297 287 266 236 208 231 223 237 249 243 249 243 234 234 238 236 242 242 241 231 239 237 239 245 237 244 246 247 249 252 246 246 243 242 241 239 238 235 233 231 230 232
329 305 285 265 250 241 221 232 232 239 248 233 235 236 242 252 251 242 244 249 243 224 226 237 242 242 243 245 248 242 247 246 247 249 247 246 244 242 239 237 234 232 231
339 316 297 270 266 252 239 223 231 236 241 244 237 246 244 249 254 253 249 245 247 244 236 239 240 252 236 243 243 246 244 245 246 250 251 249 248 244 242 239 237 236 233
345 331 310 303 272 264 238 233 228 234 242 239 242 240 254 244 246 252 245 250 239 240 236 251 251 235 235 239 241 241 242 245 244 248 251 253 251 246 244 242 239 238 238
354 347 328 308 292 262 248 233 236 230 237 237 242 247 242 241 243 247 253 251 244 243 239 243 215 222 215 242 244 237 238 241 245 247 255 256 255 251 247 244 242 240 240
357 1 355 327 285 279 267 251 237 233 232 240 240 243 246 250 250 248 259 245 235 244 251 243 237 238 226 238 247 256 232 237 243 255 258 261 258 252 248 246 244 243 241
4 1 355 323 310 298 274 266 245 236 235 236 235 241 249 249 252 249 243 247 255 255 248 243 250 248 245 239 235 244 255 239 243 247 252 258 257 253 250 247 246 245 244
21 6 5 347 335 319 304 273 261 255 245 231 232 242 245 245 249 243 246 235 238 250 246 246 248 242 244 250 238 241 254 256 261 266 252 258 266 258 251 248 244 244 243
45 37 36 32 2 0 324 318 300 273 255 243 240 237 234 243 259 249 238 242 248 241 240 246 250 250 247 249 245 246 250 247 251 251 247 254 265 269 266 257 254 252 249
38 41 35 38 8 9 4 340 308 303 272 256 245 241 226 231 239 236 239 244 248 254 244 257 261 251 252 243 244 247 257 254 252 255 247 257 265 266 257 271 263 257 252
38 45 43 33 24 22 1 344 310 314 307 271 248 245 245 235 223 227 234 235 235 249 254 258 252 255 262 260 254 255 270 269 266 255 251 248 256 262 263 275 262 258 254
39 42 31 28 29 25 20 27 37 58 75 66 294 255 251 249 247 237 242 246 236 241 250 247 254 260 258 259 259 262 262 255 243 250 253 253 253 258 262 262 262 258 256
32 31 38 21 19 22 23 28 35 47 51 43 32 5 328 265 256 251 251 241 239 227 234 249 250 255 272 282 251 266 256 242 245 252 263 255 247 246 252 261 268 259 256
Wind_Speed_850mb
32 32 40 42 41 41 46 51 48 50 44 36 41 29 13 19 20 20 16 13 21 20 34 35 33 33 34 30 34 33 32 34 29 31 31 30 29 26 25 24 23 24 24
35 30 33 35 43 46 46 60 53 54 46 39 43 26 24 25 26 21 12 16 21 20 35 34 33 34 34 32 31 32 31 31 30 29 30 28 28 26 24 22 21 22 21
31 31 28 27 30 36 52 58 61 58 52 43 38 36 32 30 31 24 19 19 20 31 34 32 34 34 33 32 32 31 33 32 29 28 27 26 27 26 24 22 20 19 18
19 28 23 19 27 34 43 53 49 57 58 50 54 47 40 35 31 26 22 20 18 31 37 35 34 32 33 32 34 31 32 30 27 26 25 24 26 26 24 21 19 17 16
15 20 23 12 23 28 41 57 56 47 63 58 58 48 41 41 35 30 24 21 11 25 37 38 36 37 36 35 35 33 34 31 27 26 24 23 24 24 24 22 19 17 16
12 15 20 13 19 22 41 46 55 38 67 70 65 50 43 40 36 33 24 16 13 9 21 33 38 40 39 38 38 36 34 33 30 28 26 24 24 25 24 23 20 18 16
16 23 20 26 14 19 33 47 52 57 53 60 64 54 46 42 38 30 24 22 22 14 16 15 27 37 42 41 39 39 37 37 34 32 30 27 27 26 26 25 22 21 19
16 16 26 25 17 19 24 40 52 49 70 66 64 59 43 41 45 42 32 28 25 24 24 22 22 24 29 40 43 44 43 39 36 34 33 31 30 29 27 26 25 23 21
4 18 21 32 21 27 26 24 39 49 60 70 65 47 30 20 51 50 43 34 32 35 34 32 29 29 34 40 40 40 42 44 41 38 36 36 34 32 30 28 26 25 23
8 8 20 30 35 23 28 30 32 40 53 59 61 65 54 34 39 30 54 49 44 45 45 42 41 39 39 41 40 35 41 44 44 41 41 39 38 36 34 31 29 27 26
8 8 12 26 38 40 28 28 35 48 51 53 60 71 84 64 57 47 43 57 55 55 53 49 49 46 44 43 44 40 39 46 46 44 44 43 42 40 38 34 32 30 29
11 8 4 13 30 47 43 33 26 44 50 49 62 70 78 80 72 64 57 60 74 65 59 56 57 54 54 52 47 46 46 46 46 48 47 47 46 45 42 38 35 34 32
19 12 13 7 16 38 49 32 37 39 47 46 57 75 71 80 75 62 67 65 69 74 73 67 67 65 63 63 56 52 54 52 49 47 50 52 51 49 46 43 40 38 36
26 22 14 13 15 21 36 45 31 33 42 49 65 52 61 61 78 80 82 69 60 70 79 80 74 80 75 72 67 59 56 56 56 50 49 53 55 52 50 49 45 42 39
31 20 16 18 19 22 39 45 44 42 27 38 54 58 53 64 57 65 79 83 77 45 72 79 76 63 71 77 76 65 62 53 51 55 52 52 55 57 55 52 50 47 44
32 23 19 17 16 30 21 34 43 44 41 37 40 47 52 54 63 70 80 75 88 84 54 68 69 65 45 49 65 71 70 60 54 49 50 54 57 59 59 56 55 53 50
35 23 18 20 18 18 27 37 42 43 38 46 41 45 49 53 50 60 54 61 72 88 87 71 68 58 58 37 44 64 77 70 58 54 49 51 55 59 60 60 59 58 55
37 26 18 15 20 21 24 28 37 46 53 43 43 43 43 41 44 47 50 56 63 68 65 73 53 72 42 34 37 48 52 65 65 53 50 50 55 57 60 62 61 60 60
33 29 21 17 21 23 23 22 29 35 55 60 47 45 45 47 41 56 53 53 45 58 74 75 74 55 43 39 48 35 53 59 55 48 50 51 54 59 60 63 63 63 62
31 31 23 20 22 22 26 25 26 30 49 56 55 50 47 44 41 47 55 46 38 43 47 74 88 92 66 61 50 43 47 47 52 58 56 56 52 54 61 63 64 67 65
29 29 22 18 20 25 26 27 28 29 24 39 55 51 51 44 44 45 51 57 44 32 35 43 55 70 77 83 79 63 61 57 47 44 63 55 51 53 56 60 69 71 69
26 38 30 25 27 32 21 26 27 26 26 29 40 52 56 41 45 43 52 60 56 48 41 48 53 58 89 84 90 81 67 60 61 61 68 74 60 53 60 61 66 71 71
21 23 25 29 31 35 34 21 20 21 20 23 22 28 35 53 39 46 47 48 71 47 58 61 65 71 66 73 81 83 85 90 87 82 61 77 78 71 62 68 70 69 72
37 34 35 32 36 43 32 20 11 11 10 12 21 29 32 38 40 48 50 48 53 53 57 67 72 74 75 70 76 74 67 73 83 87 90 79 81 90 90 77 71 77 70
40 38 44 40 40 49 45 37 23 17 9 8 3 13 28 39 47 52 53 49 53 52 45 45 43 54 64 71 90 92 89 83 82 82 89 105 97 96 91 83 79 73 76
32 30 36 34 35 44 43 47 44 36 24 17 13 12 10 20 38 53 41 54 57 55 57 52 48 44 41 53 67 76 88 91 92 84 93 95 97 95 91 99 92 85 80
Wind_Direction_850mb
231 221 222 219 219 208 210 201 194 196 190 181 174 171 208 213 215 242 263 289 277 236 164 170 169 167 165 169 167 168 160 159 156 155 154 155 153 150 146 142 135 130 126
238 220 222 231 217 214 214 199 195 194 189 176 173 196 209 209 218 238 268 289 253 200 166 174 174 171 174 177 176 169 167 165 165 163 160 159 157 158 155 152 146 139 136
248 244 226 226 222 223 218 207 195 188 189 184 193 196 205 213 217 235 274 285 239 179 173 178 188 182 185 184 180 175 171 176 175 169 168 168 166 168 165 164 160 150 146
229 258 242 217 204 219 218 213 185 187 193 197 200 192 208 222 222 231 260 283 246 189 183 191 190 191 191 188 183 187 183 182 184 179 176 174 175 175 175 175 173 166 160
216 249 252 230 198 213 225 220 201 212 196 204 201 198 206 222 227 233 247 270 260 214 192 194 197 196 200 200 196 189 198 191 192 188 183 183 186 184 187 188 187 184 180
214 185 241 256 201 216 222 219 207 235 220 203 201 200 206 211 219 229 241 249 270 234 210 208 201 200 204 205 201 202 202 202 200 197 193 194 198 198 196 199 199 200 200
210 210 199 235 223 200 209 210 214 219 229 195 200 196 198 198 199 218 227 237 264 259 239 235 234 217 211 207 207 204 206 209 208 204 197 199 204 208 207 210 209 211 214
229 213 218 215 216 218 210 217 225 221 196 185 193 191 185 193 199 205 216 225 250 253 252 246 238 239 249 231 215 209 210 213 211 210 208 204 207 212 214 218 218 220 223
325 217 229 221 220 224 228 230 222 227 206 196 197 185 175 192 195 201 198 213 229 240 250 255 255 257 259 245 231 229 219 216 217 218 214 212 211 214 217 221 225 227 230
309 282 223 221 221 243 225 227 228 229 198 186 202 212 213 203 186 196 205 208 220 233 242 251 250 253 261 240 231 236 238 230 223 222 222 220 217 217 219 221 226 231 235
332 272 229 235 226 224 236 232 234 230 223 221 225 222 225 218 212 209 203 210 218 224 233 247 251 249 256 257 236 237 241 238 237 230 228 227 225 223 222 223 226 231 236
324 264 273 200 208 222 220 241 236 235 226 235 238 236 224 211 210 219 218 225 224 226 227 234 246 247 252 256 253 246 242 237 235 236 236 234 231 228 227 225 226 230 234
308 302 283 248 200 211 229 228 242 242 242 240 237 226 237 225 223 223 223 219 230 235 235 232 239 245 247 251 254 254 249 240 241 239 240 238 237 234 231 229 228 229 232
320 297 287 266 236 208 231 223 237 249 243 249 243 234 234 238 236 242 242 241 231 239 237 239 245 237 244 246 247 249 252 246 246 243 242 241 239 238 235 233 231 230 232
329 305 285 265 250 241 221 232 232 239 248 233 235 236 242 252 251 242 244 249 243 224 226 237 242 242 243 245 248 242 247 246 247 249 247 246 244 242 239 237 234 232 231
339 316 297 270 266 252 239 223 231 236 241 244 237 246 244 249 254 253 249 245 247 244 236 239 240 252 236 243 243 246 244 245 246 250 251 249 248 244 242 239 237 236 233
345 331 310 303 272 264 238 233 228 234 242 239 242 240 254 244 246 252 245 250 239 240 236 251 251 235 235 239 241 241 242 245 244 248 251 253 251 246 244 242 239 238 238
354 347 328 308 292 262 248 233 236 230 237 237 242 247 242 241 243 247 253 251 244 243 239 243 215 222 215 242 244 237 238 241 245 247 255 256 255 251 247 244 242 240 240
357 1 355 327 285 279 267 251 237 233 232 240 240 243 246 250 250 248 259 245 235 244 251 243 237 238 226 238 247 256 232 237 243 255 258 261 258 252 248 246 244 243 241
4 1 355 323 310 298 274 266 245 236 235 236 235 241 249 249 252 249 243 247 255 255 248 243 250 248 245 239 235 244 255 239 243 247 252 258 257 253 250 247 246 245 244
21 6 5 347 335 319 304 273 261 255 245 231 232 242 245 245 249 243 246 235 238 250 246 246 248 242 244 250 238 241 254 256 261 266 252 258 266 258 251 248 244 244 243
45 37 36 32 2 0 324 318 300 273 255 243 240 237 234 243 259 249 238 242 248 241 240 246 250 250 247 249 245 246 250 247 251 251 247 254 265 269 266 257 254 252 249
38 41 35 38 8 9 4 340 308 303 272 256 245 241 226 231 239 236 239 244 248 254 244 257 261 251 252 243 244 247 257 254 252 255 247 257 265 266 257 271 263 257 252
38 45 43 33 24 22 1 344 310 314 307 271 248 245 245 235 223 227 234 235 235 249 254 258 252 255 262 260 254 255 270 269 266 255 251 248 256 262 263 275 262 258 254
39 42 31 28 29 25 20 27 37 58 75 66 294 255 251 249 247 237 242 246 236 241 250 247 254 260 258 259 259 262 262 255 243 250 253 253 253 258 262 262 262 258 256
32 31 38 21 19 22 23 28 35 47 51 43 32 5 328 265 256 251 251 241 239 227 234 249 250 255 272 282 251 266 256 242 245 252 263 255 247 246 252 261 268 259 256